Change the Weather History Date:

Thursday, January 23, 2014

  Actual Average Record
Temperature  
Mean Temperature 8 °F -  
Max Temperature 15 °F 37 °F 55 °F (2002)
Min Temperature 1 °F 19 °F -2 °F (2003)
Degree Days  
Heating Degree Days 57    
Moisture  
Dew Point -8 °F    
Average Humidity 52    
Maximum Humidity 64    
Minimum Humidity 36    
Precipitation  
Precipitation 0.00 in - - ()
Sea Level Pressure  
Sea Level Pressure 30.77 in    
Wind  
Wind Speed 14 mph (NW)    
Max Wind Speed 18 mph    
Max Gust Speed 25 mph    
Visibility 10 miles    
Events      
Averages and records for this station are not official NWS values.
T = Trace of Precipitation, MM = Missing Value Source: NWS Daily Summary

Daily Weather History Graph

Daily Weather History Graph

Search for Another Location

Airport or City:

Trip Planner

Search our weather history database for the weather conditions in past years. The results will help you decide how hot, cold, wet, or windy it might be!

Date:

Astronomy

Jan. 23, 2014 Rise Set
Actual Time 7:32 AM CST 5:30 PM CST
Civil Twilight 7:03 AM CST 5:59 PM CST
Nautical Twilight 6:31 AM CST 6:31 PM CST
Astronomical Twilight 5:59 AM CST 7:03 PM CST
Moon No Moon Rise 11:12 AM CST (1/23)
Length of Visible Light 10h 55m
Length of Day
9h 58m
Waning Gibbous, 55% of the Moon is Illuminated
Jan 23
Waning Gibbous
Jan 23
Last Quarter
Jan 30
New
Feb 6
First Quarter
Feb 14
Full

Hourly Weather History & Observations

Time (CST) Temp. Windchill Dew Point Humidity Pressure Visibility Wind Dir Wind Speed Gust Speed Precip Events Conditions
12:53 AM 6.1 °F -12.8 °F -8.0 °F 53% 30.57 in 10.0 mi North 17.3 mph 25.3 mph N/A   Clear
1:53 AM 5.0 °F -13.0 °F -9.0 °F 52% 30.60 in 10.0 mi NNW 15.0 mph - N/A   Clear
2:53 AM 3.9 °F -16.1 °F -9.0 °F 55% 30.61 in 10.0 mi North 18.4 mph 24.2 mph N/A   Clear
3:53 AM 3.0 °F -16.1 °F -9.9 °F 55% 30.65 in 10.0 mi North 16.1 mph - N/A   Clear
4:53 AM 1.9 °F -18.7 °F -9.0 °F 60% 30.68 in 10.0 mi NNW 18.4 mph - N/A   Clear
5:53 AM 1.9 °F -18.7 °F -9.9 °F 58% 30.71 in 10.0 mi NNW 18.4 mph - N/A   Clear
6:53 AM 1.9 °F -16.9 °F -9.0 °F 60% 30.76 in 10.0 mi NNW 15.0 mph - N/A   Clear
7:53 AM 1.0 °F -18.0 °F -9.9 °F 60% 30.79 in 10.0 mi NNW 15.0 mph - N/A   Clear
8:53 AM 1.9 °F -18.1 °F -9.9 °F 58% 30.83 in 10.0 mi NNW 17.3 mph - N/A   Clear
9:53 AM 3.0 °F -13.3 °F -9.0 °F 57% 30.87 in 10.0 mi NNW 11.5 mph - N/A   Clear
10:53 AM 5.0 °F -13.0 °F -8.0 °F 55% 30.89 in 10.0 mi NW 15.0 mph - N/A   Clear
11:53 AM 8.1 °F -7.0 °F -7.1 °F 50% 30.87 in 10.0 mi NW 11.5 mph - N/A   Clear
12:53 PM 10.0 °F -5.9 °F -7.1 °F 46% 30.84 in 10.0 mi NNW 13.8 mph 18.4 mph N/A   Clear
1:53 PM 12.9 °F -2.8 °F -8.0 °F 39% 30.83 in 10.0 mi NNW 15.0 mph - N/A   Clear
2:53 PM 14.0 °F -0.8 °F -8.0 °F 37% 30.82 in 10.0 mi NW 13.8 mph - N/A   Clear
3:53 PM 15.1 °F 2.5 °F -8.0 °F 36% 30.82 in 10.0 mi WNW 10.4 mph - N/A   Clear
4:53 PM 14.0 °F 1.2 °F -7.1 °F 39% 30.82 in 10.0 mi WNW 10.4 mph - N/A   Clear
5:53 PM 10.9 °F 1.4 °F -6.0 °F 47% 30.82 in 10.0 mi NW 5.8 mph - N/A   Clear
6:53 PM 10.0 °F 3.6 °F -6.0 °F 48% 30.82 in 10.0 mi West 3.5 mph - N/A   Clear
7:53 PM 9.0 °F - -6.0 °F 51% 30.81 in 10.0 mi Calm Calm - N/A   Clear
8:53 PM 8.1 °F - -5.1 °F 55% 30.80 in 10.0 mi Calm Calm - N/A   Clear
9:53 PM 5.0 °F -2.1 °F -6.0 °F 61% 30.79 in 10.0 mi SSW 3.5 mph - N/A   Clear
10:53 PM 3.9 °F -6.9 °F -6.0 °F 64% 30.76 in 10.0 mi South 5.8 mph - N/A   Clear
11:53 PM 7.0 °F -7.5 °F -4.0 °F 61% 30.72 in 10.0 mi SW 10.4 mph - N/A   Clear